Content
SEND FEEDBACK

Daily
Averages
Monthly
Summary
United States of America

ROME, GEORGIA


Home > North America > United States > Georgia
Elevation: 644 feet     Latitude: 34 20N     Longitude: 085 09W

WEATHER
 
SELECT A DAY
Number of Records: 214,174;   Date Range: 1/1/95 - 10/22/14
 
SHARE

PRINT THIS DATA

[ ← Previous Day ]
WEATHER ALMANAC - MARCH 7, 2014
[ Next Day → ]
[ °C ]   °F
Weather ElementAverageHighLow
Temperature44.1 °F59 °F (3:53 pm)39 °F (12:53 am)
Dewpoint40.4 °F44.6 °F (12:09 pm)37.4 °F (12:24 am)
Humidity88.2 %100 % (3:53 am)53 % (3:53 pm)
Barometer30.00 in30.06 in (9:23 am)29.94 in (2:53 pm)
Wind Speed1.1 mph8.1 mph (8:55 am)
Weather ElementAverage
Visibility6.4 mi
Wind DirectionENE (58.4 °)

Weather ElementTotal
Precipitation0.09 in
Heating Degree Days16 (Base 65)
Averaged from 38 records on March 7, 2014
WEATHER CONDITIONS BREAKOUT
WIND DIRECTION BREAKOUT
WEATHER BY HOUR - MARCH 7, 2014
[ °C ]   °F
Local TimeTemperatureDewpointHumidityBarometerVisibilityWind DirectionWind SpeedGust SpeedPrecipitationEventsConditions
12:24 AM39.2 °F37.4 °F93 %29.99 in4.0 miCalmOvercast
12:53 AM39.0 °F37.9 °F96 %29.98 in7.0 miCalmOvercast
1:14 AM39.2 °F37.4 °F93 %29.98 in5.0 miCalmOvercast
1:53 AM39.0 °F37.9 °F96 %29.97 in6.0 miCalmOvercast
2:53 AM39.0 °F37.9 °F96 %29.96 in4.0 miCalmOvercast
3:53 AM39.0 °F39.0 °F100 %29.95 in3.0 miCalmOvercast
4:26 AM39.2 °F39.2 °F100 %29.95 in5.0 miCalmOvercast
4:36 AM39.2 °F37.4 °F93 %29.95 in4.0 miCalmOvercast
4:53 AM39.0 °F39.0 °F100 %29.95 in3.0 miCalmOvercast
5:08 AM39.2 °F37.4 °F93 %29.96 in4.0 miCalmOvercast
5:53 AM39.0 °F39.0 °F100 %29.98 in3.0 miCalmOvercast
6:53 AM39.9 °F39.0 °F97 %30.00 in4.0 miCalmOvercast
7:28 AM39.2 °F39.2 °F100 %30.02 in1.8 miCalmOvercast
7:53 AM39.9 °F39.9 °F100 %30.02 in1.5 miCalmOvercast
8:32 AM41.0 °F39.2 °F93 %30.03 in2.5 miNNW (330°)4.6 mph0.00 inRainLight Rain
8:40 AM41.0 °F39.2 °F93 %30.04 in4.0 miNNW (330°)4.6 mph0.00 inOvercast
8:53 AM41.0 °F39.0 °F93 %30.05 in3.0 miNW (310°)5.8 mph0.00 inRainLight Rain
8:55 AM41.0 °F39.2 °F93 %30.05 in2.5 miNW (320°)8.1 mph0.00 inRainLight Rain
9:23 AM42.8 °F39.2 °F87 %30.06 in3.0 miNNW (340°)4.6 mph0.03 inRainLight Rain
9:50 AM42.8 °F41.0 °F93 %30.05 in5.0 miCalm0.03 inOvercast
9:53 AM42.1 °F39.9 °F92 %30.05 in5.0 miCalm0.03 inOvercast
10:24 AM42.8 °F41.0 °F93 %30.05 in7.0 miCalmOvercast
10:53 AM45.0 °F41.0 °F86 %30.04 in10.0 miCalmOvercast
11:53 AM46.9 °F42.1 °F83 %30.05 in10.0 miCalmOvercast
12:09 PM46.4 °F44.6 °F93 %30.04 in10.0 miCalmOvercast
12:29 PM48.2 °F42.8 °F82 %30.03 in10.0 miCalmOvercast
12:53 PM50.0 °F42.1 °F74 %30.01 in10.0 miCalmOvercast
1:53 PM54.0 °F41.0 °F62 %29.97 in10.0 miCalmPartly Cloudy
2:53 PM57.0 °F42.1 °F57 %29.94 in10.0 miCalmClear
3:53 PM59.0 °F42.1 °F53 %29.94 in10.0 miSouth (180°)5.8 mphClear
4:53 PM59.0 °F44.1 °F58 %29.94 in10.0 miSouth (190°)5.8 mphClear
5:53 PM57.9 °F43.0 °F58 %29.95 in10.0 miSW (220°)3.5 mphClear
6:53 PM52.0 °F44.1 °F74 %29.96 in10.0 miCalmClear
7:53 PM46.9 °F44.1 °F90 %29.99 in10.0 miCalmClear
8:53 PM45.0 °F44.1 °F97 %30.00 in10.0 miCalmClear
9:53 PM42.1 °F41.0 °F96 %30.01 in9.0 miCalmClear
10:53 PM42.1 °F41.0 °F96 %30.02 in9.0 miCalmClear
11:53 PM39.9 °F39.9 °F100 %30.02 in7.0 miCalmClear
Hourly data recorded from KRMG, located miles away from Rome, Georgia







STORIES FROM OUR PARTNERS